Погода в Николаевке

Россия / Курганская область     55°34′02″N   62°45′33″E
темп.,
°C
ветер,
м/с
пор.,
м/с
влажн.,
%
обл.,
%
осадки,
мм/ч
давл.,
гПа
погр.,
м
12 мая, ср
ср1223:00+15зюз11345 0.0 102710
02:00+13зюз23405 0.0 102714
05:00+12з334354 0.0 102833
08:00+17зсз45415 0.0 1028277
11:00+22ссз45465 0.0 10271114
14:00+24сз663720 0.0 10262103
17:00+24с673144 0.0 10261982
20:00+20ссв334689 0.0 102629
13 мая, чт
чт1323:00+16всв225971 0.0 102712
02:00+15зюз1159100 0.0 102711
05:00+13з226764 0.0 102713
08:00+19сз344810 0.0 1027283
11:00+23сз463691 0.0 10271439
14:00+26сз56325 0.0 10251953
17:00+26ссз56275 0.0 10252125
20:00+22с23425 0.0 102518
14 мая, пт
пт1423:00+18с12465 0.0 102611
02:00+16в125473 0.0 102711
05:00+15ююв116012 0.0 102811
08:00+21ююз224440 0.0 1027210
11:00+26юз33325 0.0 10271160
14:00+28зюз45275 0.0 10252592
17:00+29з47275 0.0 10242988
20:00+25з123867 0.0 102311
15 мая, сб
сб1523:00+22з23372 0.0 102423
02:00+18сз334716 0.0 102339
05:00+17сз355680 0.0 102467
08:00+21сз3547100 0.1 1024250
11:00+27з34345 0.1 10231292
14:00+29з452970 0.0 10222134
17:00+29з462756 0.0 10212861
20:00+24зсз35435 0.0 102058
16 мая, вс
вс1623:00+20зсз48475 0.0 1020117
02:00+18зсз47522 0.0 1020102
05:00+17зсз48591 0.0 1021102
08:00+22зсз47455 0.0 1021299
11:00+27зсз453245 0.0 10201063
14:00+30зсз45255 0.0 10202070
17:00+30з34235 0.0 10192601
20:00+26юз22350 0.0 101911